Flag for U.S.A. Weather past 2 weeks in Des Moines, Iowa, U.S.A.

Now
81 °F

Cloudy.


Feels Like: 84 °F
Forecast: 68 / 86 °F
Wind: 10 mph from South

Location: Des Moines International Airport

Current Time: Aug 20, 2014 at 3:30:12 PM

Latest Report: Aug 20, 2014 at 2:54 PM


Visibility: 10 mi

Pressure: 29.83 "Hg

Humidity: 67%

Dew point: 69 °F

Location of Des MoinesLocation

Historic Weather in Des Moines — Graph

°F

Des Moines temperature yesterday

Maximum temperature yesterday: 86 °F (at 2:54 PM)
Minimum temperature yesterday: 70 °F (at 5:54 AM)
Average temperature yesterday: 78 °F

Past Weeks' High & Low Weather Summary

 TemperatureHumidityPressure
High88 °F (Aug 18, 4:54 PM)97% (Aug 17, 8:01 AM)30.13 "Hg (Aug 17, 8:01 AM)
Low57 °F (Aug 13, 4:54 AM)39% (Aug 12, 4:54 PM)29.70 "Hg (Aug 19, 5:54 AM)
Average73 °F76%29.95 "Hg
* Reported Aug 5 1:54 PM — Aug 20 1:54 PM, Des Moines, Weather by CustomWeather, © 2014

Note: Actual official high and low records may vary slightly from our data, if they occured in-between our weather recording intervals... More about our weather records

Advertising

Des Moines weather history for previous 24 hours

 ConditionsComfort  
Time TempWeatherWind HumidityBarometerVisibility
1:54 PM
Aug 20
78 °FMostly cloudy.9 mph74%29.85 "Hg10 mi
12:54 PM74 °FLight rain. Overcast.8 mph82%29.84 "Hg10 mi
11:54 AM72 °FOvercast.9 mph84%29.83 "Hg10 mi
10:54 AM69 °FLight rain. Cloudy.9 mph87%29.86 "Hg10 mi
9:54 AM68 °FThunderstorms. Fog.5 mph87%29.91 "Hg4 mi
8:54 AM68 °FStrong thunderstorms. Fog.10 mph90%29.92 "Hg2 mi
8:01 AM69 °FStrong thunderstorms. Fog.9 mph93%29.92 "Hg2 mi
6:59 AM71 °FThunderstorms. Fog.15 mph87%29.83 "Hg2 mi
5:54 AM70 °FMostly cloudy.7 mph94%29.79 "Hg10 mi
4:56 AM70 °FStrong thunderstorms. Fog.31 mph90%29.88 "Hg1 mi
3:54 AM74 °FPassing clouds.6 mph74%29.77 "Hg10 mi
2:54 AM72 °FPassing clouds.6 mph81%29.79 "Hg10 mi
1:54 AM71 °FPassing clouds.3 mph84%29.80 "Hg10 mi
12:54 AM73 °FPassing clouds.3 mph79%29.79 "Hg10 mi
11:54 PM
Aug 19
75 °FPassing clouds.No wind74%29.80 "Hg10 mi
10:54 PM75 °FClear.3 mph74%29.79 "Hg10 mi
9:54 PM78 °FClear.No wind64%29.78 "Hg10 mi
8:54 PM80 °FPassing clouds.No wind60%29.77 "Hg10 mi
7:54 PM81 °FPassing clouds.3 mph58%29.77 "Hg10 mi
6:54 PM84 °FPassing clouds.5 mph51%29.76 "Hg10 mi
5:54 PM85 °FPassing clouds.No wind48%29.75 "Hg10 mi
4:54 PM86 °FPassing clouds.8 mph48%29.75 "Hg10 mi
3:54 PM86 °FPassing clouds.9 mph46%29.76 "Hg10 mi
Weather by CustomWeather, © 2014

See weather overviewHow to use our weather pages